[[{"header":{"parameterUnit":"m.s-1","parameterCategory":1,"la1":30.2991,"la2":30.254,"lo1":-89.0895,"lo2":-89.0444,"dy":0.0017,"dx":0.0017,"nx":28,"ny":28,"refTime":"2023-10-25T03:00:00:Z","depth":0,"parameterNumber":2,"parameterNumberName":"U-component_of_WINDS"},"data":[0,0,0,0,0,0,0,0,0,0,0,0,0,0,0,0,0,0,0,0,0,0,0,0,0,0,0,0,0,0,0,0,0,0,0,0,0,0,0,0,0,0,0,0,0,0,0,0,0,0,0,0,0,0,0,0,0,0,-4.5263,-4.5264,0,-4.5369,-4.537,-4.5371,-4.5309,-4.5306,-4.5303,-4.53,-4.5409,-4.5415,-4.542,0,0,0,0,0,0,0,0,0,0,0,0,0,-4.5009,-4.5014,-4.5263,-4.5264,-4.5266,-4.5369,-4.537,-4.5372,-4.5309,-4.5306,-4.5302,-4.5299,-4.5407,-4.5414,-4.5421,0,0,0,0,0,0,0,0,0,0,0,0,0,-4.5117,-4.5015,-4.5263,-4.5247,-4.5247,-4.5368,-4.537,-4.5372,-4.531,-4.5306,-4.5301,-4.5297,-4.5405,-4.5413,-4.5422,-4.5565,0,0,-4.5448,-4.5452,0,0,0,0,0,0,0,0,-4.5111,-4.5127,-4.5248,-4.5248,-4.5248,-4.5321,-4.532,-4.5437,-4.5311,-4.5286,-4.53,-4.5295,-4.5384,-4.5394,-4.5423,-4.557,-4.5575,-4.5449,-4.5454,-4.5458,-4.546,0,0,0,0,0,0,0,-4.5104,-4.5122,-4.5305,-4.525,-4.525,-4.5235,-4.5246,-4.5342,-4.5359,-4.5288,-4.5284,-4.5297,-4.5383,-4.5415,-4.5426,-4.5577,-4.5449,-4.5456,-4.5462,-4.5465,-4.5846,-4.585,0,0,0,0,0,0,-4.5097,-4.5116,-4.5302,-4.5308,-4.5167,-4.5243,-4.5255,-4.5302,-4.5358,-4.5362,-4.5301,-4.5294,-4.5403,-4.5416,-4.5429,-4.5599,-4.5458,-4.5466,-4.5471,-4.5841,-4.5847,-4.5852,0,0,0,0,0,0,-4.5092,-4.5114,-4.5297,-4.5211,-4.5233,-4.5253,-4.5306,-4.5307,-4.5339,-4.5367,-4.537,-4.5331,-4.54,-4.5417,-4.5532,-4.5602,-4.547,-4.5477,-4.5835,-4.5843,-4.5849,-4.5941,0,0,0,0,0,0,-4.5085,-4.5113,-4.5167,-4.5213,-4.5238,-4.5398,-4.531,-4.5312,-4.5354,-4.5346,-4.5396,-4.54,-4.5398,-4.5519,-4.554,-4.5611,-4.5484,-4.5829,-4.5838,-4.5847,-4.5932,-4.5951,-4.5967,0,0,0,0,0,-4.5076,-4.5189,-4.517,-4.5193,-4.5306,-4.5402,-4.5416,-4.5411,-4.536,-4.5415,-4.5433,-4.5399,-4.5592,-4.5531,-4.5555,-4.5629,-4.5824,-4.5836,-4.5846,-4.5924,-4.5947,-4.5966,0,0,0,0,0,0,-4.5152,-4.5195,-4.5174,-4.5305,-4.5351,-4.5391,-4.546,-4.5436,-4.5496,-4.5486,-4.5477,-4.5489,-4.5608,-4.5631,-4.5563,-4.5771,-4.57,-4.5716,-4.5751,-4.5773,-4.579,-4.5781,-4.5491,0,0,0,0,0,-4.5184,-4.5258,-4.5292,-4.5404,-4.5428,-4.5441,-4.5482,-4.5474,-4.552,-4.5539,-4.5565,-4.5612,-4.5683,-4.573,-4.5797,-4.5936,-4.5945,-4.5999,-4.6016,-4.6031,-4.6044,-4.6118,-4.6142,-4.5889,-4.5889,-4.5888,0,0,-4.5251,-4.5283,-4.533,-4.542,-4.5454,-4.5531,-4.5457,-4.5541,-4.5598,-4.5552,-4.566,-4.5682,-4.5734,-4.5861,-4.5918,-4.5883,-4.6116,-4.6045,-4.6056,-4.6062,-4.6132,-4.6156,-4.6177,-4.5896,-4.5895,-4.5894,0,0,-4.5411,-4.5444,-4.554,-4.5576,-4.5628,-4.5635,-4.5659,-4.5704,-4.5716,-4.5825,-4.5792,-4.586,-4.5983,-4.602,-4.6056,-4.6231,-4.6201,-4.6254,-4.6344,-4.6416,-4.6436,-4.6454,-4.6514,-4.6536,-4.6267,-4.6268,-4.6268,0,-4.5487,-4.56,-4.5593,-4.5679,-4.5719,-4.5682,-4.5779,-4.5814,-4.5886,-4.5915,-4.5875,-4.6028,-4.606,-4.6195,-4.6237,-4.6268,-4.6294,-4.6246,-4.6434,-4.6451,-4.6468,-4.6525,-4.6548,-4.6273,-4.6273,-4.6272,-4.6272,0,-4.569,-4.577,-4.5842,-4.5911,-4.596,-4.6051,-4.6058,-4.6108,-4.6097,-4.6109,-4.622,-4.6258,-4.6331,-4.6363,-4.6353,-4.6497,-4.6473,-4.6435,-4.6362,-4.6497,-4.6551,-4.6573,-4.6282,-4.628,-4.6278,-4.6276,0,0,-4.5899,-4.5963,-4.5989,-4.602,-4.6075,-4.6137,-4.6227,-4.6298,-4.6341,-4.6393,-4.6467,-4.6573,-4.6537,-4.6577,-4.6571,-4.6635,-4.6769,-4.6587,-4.6588,-4.6618,-4.6927,-4.6954,-4.698,-4.6751,-4.6755,-4.6758,-4.6922,0,-4.606,-4.6216,-4.6213,-4.6358,-4.6431,-4.6397,-4.6476,-4.6518,-4.6533,-4.6597,-4.6613,-4.6686,-4.6635,-4.6658,-4.672,-4.6739,-4.683,-4.6728,-4.6819,-4.6822,-4.6804,-4.7008,-4.7037,-4.7189,-4.6943,-4.6947,-4.6949,0,-4.6268,-4.6326,-4.6478,-4.6522,-4.6552,-4.6623,-4.6688,-4.675,-4.6798,-4.6804,-4.6849,-4.6833,-4.6925,-4.6853,-4.6979,-4.6909,-4.6947,-4.6962,-4.6968,-4.6973,-4.6892,-4.7017,-4.7238,-4.726,-4.6983,-4.698,-4.6978,0,-4.6402,-4.6518,-4.6623,-4.6651,-4.6706,-4.6756,-4.6781,-4.6824,-4.6867,-4.6925,-4.6952,-4.702,-4.7057,-4.711,-4.7113,-4.706,-4.7239,-4.7168,-4.7246,-4.7246,-4.7282,-4.7279,-4.7509,-4.7312,-4.7311,-4.7311,-4.731,0,-4.658,-4.6674,-4.6683,-4.6748,-4.6853,-4.6849,-4.6952,-4.6973,-4.7012,-4.708,-4.7057,-4.7121,-4.7122,-4.7189,-4.7192,-4.7295,-4.7312,-4.7319,-4.7318,-4.7319,-4.7318,-4.7342,-4.733,-4.7317,-4.7316,-4.7314,-4.7313,0,-4.6745,-4.6756,-4.6868,-4.6911,-4.6924,-4.6999,-4.7035,-4.7097,-4.711,-4.7197,-4.7217,-4.7237,-4.7314,-4.7322,-4.7413,-4.7415,-4.7538,-4.7527,-4.7521,-4.7518,-4.7594,-4.7586,-4.7845,-4.7878,-4.7662,-4.7664,-4.7666,0,-4.6857,-4.6928,-4.6979,-4.7022,-4.705,-4.7121,-4.7165,-4.7164,-4.7211,-4.7271,-4.7325,-4.74,-4.7459,-4.7583,-4.7606,-4.7675,-4.7664,-4.775,-4.7674,-4.7672,-4.7662,-4.7656,-4.7663,-4.7764,-4.7766,-4.7768,-4.777,0,-4.7053,-4.7055,-4.7118,-4.7184,-4.7236,-4.7288,-4.7337,-4.7374,-4.738,-4.7433,-4.7511,-4.7557,-4.7649,-4.7723,-4.779,-4.7817,-4.7794,-4.7794,-4.7815,-4.7815,-4.7808,-4.781,-4.7558,-4.7787,-4.7785,-4.7784,-4.7783,-4.7782,-4.7193,-4.7254,-4.7299,-4.737,-4.7407,-4.7453,-4.7513,-4.7533,-4.7598,-4.7671,-4.7668,-4.7753,-4.78,-4.7888,-4.792,-4.7987,-4.7958,-4.799,-4.7997,-4.8004,-4.801,-4.78,-4.8,-4.7999,-4.7999,-4.7999,-4.7998,0,-4.7386,-4.7413,-4.7479,-4.7547,-4.7603,-4.7578,-4.7631,-4.7679,-4.7755,-4.78,-4.7859,-4.7948,-4.802,-4.8049,-4.8119,-4.8167,-4.8158,-4.8185,-4.818,-4.8186,-4.8033,-4.8007,-4.8191,-4.8191,-4.8191,-4.8191,-4.8191,-4.8191,-4.7492,-4.7594,-4.7601,-4.7721,-4.7748,-4.7831,-4.7863,-4.7905,-4.7941,-4.8041,-4.81,-4.8119,-4.8158,-4.8231,-4.8295,-4.8302,-4.8328,-4.8359,-4.8361,-4.8217,-4.8197,-4.8178,-4.8153,-4.8365,-4.8366,-4.8508,-4.8509,-4.851]},{"header":{"parameterUnit":"m.s-1","parameterCategory":1,"la1":30.2991,"la2":30.254,"lo1":-89.0895,"lo2":-89.0444,"dy":0.0017,"dx":0.0017,"nx":28,"ny":28,"refTime":"2023-10-25T03:00:00:Z","depth":0,"parameterNumber":3,"parameterNumberName":"V-component_of_WINDS"},"data":[0,0,0,0,0,0,0,0,0,0,0,0,0,0,0,0,0,0,0,0,0,0,0,0,0,0,0,0,0,0,0,0,0,0,0,0,0,0,0,0,0,0,0,0,0,0,0,0,0,0,0,0,0,0,0,0,0,0,1.6336,1.6335,0,1.6273,1.6272,1.6271,1.6133,1.613,1.6127,1.6124,1.6065,1.6066,1.6067,0,0,0,0,0,0,0,0,0,0,0,0,0,1.6344,1.6345,1.6336,1.6335,1.6335,1.6273,1.6272,1.6271,1.6133,1.613,1.6126,1.6123,1.6064,1.6066,1.6067,0,0,0,0,0,0,0,0,0,0,0,0,0,1.6317,1.6345,1.6336,1.6258,1.625,1.6273,1.6272,1.6271,1.6134,1.6129,1.6125,1.6121,1.6064,1.6065,1.6067,1.6162,0,0,1.6072,1.6073,0,0,0,0,0,0,0,0,1.6319,1.6317,1.627,1.6264,1.6255,1.6206,1.6253,1.6234,1.6135,1.6178,1.6124,1.6119,1.6115,1.6113,1.611,1.6159,1.6157,1.6072,1.6073,1.6074,1.6074,0,0,0,0,0,0,0,1.6321,1.6319,1.6311,1.627,1.6261,1.6228,1.622,1.6249,1.6172,1.6174,1.6164,1.6158,1.611,1.6109,1.6108,1.6156,1.6072,1.6073,1.6074,1.6075,1.6281,1.6285,0,0,0,0,0,0,1.6333,1.6321,1.6313,1.6309,1.6277,1.6232,1.6222,1.6226,1.6171,1.6158,1.6162,1.6152,1.6108,1.6106,1.6105,1.6213,1.6074,1.6075,1.6076,1.6277,1.6282,1.6287,0,0,0,0,0,0,1.6334,1.6334,1.6316,1.6312,1.6307,1.6236,1.6242,1.6227,1.6225,1.6161,1.6148,1.6174,1.6105,1.6103,1.6149,1.6209,1.6076,1.6077,1.6271,1.6278,1.6284,1.643,0,0,0,0,0,0,1.6334,1.6335,1.6368,1.6314,1.6308,1.6359,1.6245,1.6229,1.6228,1.6214,1.6169,1.6158,1.6101,1.6147,1.615,1.6209,1.6078,1.6265,1.6274,1.6282,1.642,1.6441,1.6459,0,0,0,0,0,1.6335,1.6413,1.6371,1.6371,1.6349,1.6363,1.6359,1.6291,1.6233,1.6268,1.6227,1.6159,1.6202,1.6153,1.6155,1.6216,1.6261,1.6272,1.6282,1.6411,1.6437,1.6459,0,0,0,0,0,0,1.6478,1.6404,1.6357,1.6419,1.6398,1.6339,1.638,1.6321,1.6318,1.6305,1.6223,1.6214,1.6272,1.6248,1.6195,1.6305,1.6221,1.6232,1.6318,1.6343,1.6362,1.6367,1.608,0,0,0,0,0,1.6516,1.6532,1.6467,1.6529,1.652,1.6453,1.6456,1.6406,1.6381,1.6372,1.6335,1.6315,1.6324,1.6332,1.6337,1.6416,1.6405,1.6458,1.6478,1.6495,1.6506,1.6547,1.657,1.632,1.632,1.632,0,0,1.6596,1.6558,1.6573,1.6556,1.6534,1.6554,1.6446,1.6471,1.6486,1.6377,1.6417,1.639,1.6363,1.6426,1.6452,1.6408,1.6573,1.6508,1.6522,1.6523,1.656,1.6584,1.6605,1.6327,1.6326,1.6325,0,0,1.6752,1.6724,1.6772,1.6752,1.6719,1.6674,1.6686,1.6636,1.6613,1.6652,1.6571,1.6588,1.6605,1.659,1.6584,1.6736,1.6675,1.674,1.6844,1.6886,1.6905,1.6922,1.6978,1.6998,1.6751,1.6752,1.6752,0,1.6856,1.688,1.6805,1.6835,1.6831,1.6732,1.6781,1.6766,1.6738,1.6738,1.6689,1.6709,1.6684,1.6743,1.678,1.6778,1.6791,1.6745,1.6908,1.6925,1.694,1.6991,1.7012,1.676,1.6759,1.6758,1.6757,0,1.701,1.7029,1.7072,1.7046,1.7046,1.7087,1.7019,1.7029,1.698,1.694,1.6983,1.6949,1.6946,1.6956,1.6908,1.7009,1.6983,1.6923,1.6836,1.6973,1.702,1.7039,1.6772,1.6769,1.6766,1.6764,0,0,1.7253,1.7184,1.7202,1.7189,1.7146,1.716,1.7197,1.7192,1.7203,1.7188,1.7218,1.7235,1.7179,1.7173,1.7123,1.7159,1.7283,1.7094,1.7092,1.7131,1.7394,1.744,1.7464,1.7242,1.7246,1.7248,1.7396,0,1.7399,1.7455,1.7389,1.746,1.7478,1.7385,1.7417,1.7396,1.7361,1.7372,1.7334,1.7348,1.7272,1.7268,1.73,1.7262,1.7335,1.725,1.7271,1.7272,1.728,1.7488,1.7536,1.7677,1.7414,1.7417,1.7419,0,1.7576,1.7567,1.7641,1.7594,1.7599,1.7629,1.762,1.7631,1.7607,1.7579,1.7573,1.7512,1.7547,1.7464,1.7512,1.7455,1.746,1.7443,1.7447,1.7447,1.7354,1.7494,1.772,1.7742,1.7447,1.7445,1.7443,0,1.7747,1.7754,1.7798,1.779,1.7737,1.7761,1.774,1.7711,1.7713,1.7706,1.7707,1.7705,1.7705,1.7706,1.7647,1.7591,1.7704,1.7614,1.7683,1.7685,1.771,1.771,1.7942,1.7714,1.7713,1.7713,1.7713,0,1.7916,1.7965,1.7874,1.7902,1.7954,1.7879,1.7933,1.7904,1.7879,1.7901,1.7821,1.7844,1.7764,1.778,1.7734,1.7782,1.7782,1.7762,1.775,1.7769,1.7772,1.7772,1.7761,1.7719,1.7717,1.7716,1.7715,0,1.8115,1.8056,1.8099,1.8045,1.8033,1.8074,1.8029,1.8054,1.8014,1.8043,1.8045,1.7984,1.7997,1.7939,1.7943,1.7913,1.7984,1.7955,1.7992,1.7984,1.8055,1.805,1.8295,1.8324,1.8078,1.808,1.8082,0,1.8227,1.8262,1.8213,1.8221,1.8204,1.8218,1.8219,1.8148,1.8153,1.8128,1.8156,1.8163,1.8165,1.8192,1.8148,1.8152,1.8122,1.8208,1.8122,1.8142,1.8125,1.8123,1.8127,1.8226,1.8229,1.8232,1.8234,0,1.8433,1.8402,1.8406,1.8401,1.8404,1.8397,1.8385,1.8397,1.832,1.833,1.8342,1.8343,1.8347,1.8356,1.8351,1.8331,1.8272,1.8261,1.8277,1.8298,1.8318,1.8309,1.8042,1.8256,1.8254,1.8252,1.8251,1.825,1.8592,1.8619,1.8589,1.8596,1.8579,1.857,1.859,1.8553,1.8561,1.8558,1.8516,1.8537,1.8513,1.8499,1.8486,1.8503,1.8463,1.8486,1.8492,1.8499,1.8512,1.8316,1.8502,1.8501,1.8501,1.85,1.8499,0,1.8794,1.877,1.8778,1.8762,1.8769,1.871,1.8694,1.8704,1.8723,1.8705,1.8708,1.8723,1.8732,1.869,1.8693,1.8715,1.8687,1.8718,1.8716,1.8713,1.8547,1.8533,1.874,1.874,1.874,1.874,1.874,1.874,1.89,1.8943,1.8909,1.8944,1.892,1.8938,1.8935,1.8926,1.8911,1.8932,1.8938,1.8909,1.8883,1.8883,1.8889,1.8877,1.8882,1.8923,1.8902,1.8748,1.8724,1.8702,1.8688,1.8925,1.8925,1.9065,1.9067,1.9068]}]]